www.pogodaiklimat.ru

Погода и климат >> Архив погоды >> Россия >> Пермский край >> Усть-Черная


ПОГОДА в Усть-Черной

  • Прогноз погоды в Усть-Черной
  • Монитор погоды в Усть-Черной
  • Климат города

АРХИВ ПОГОДЫ в Усть-Черной

Время (UTC), дата Ветер
(напр.,м/с)
 
Видим.   Явления Облачность Т
(С)
Тd
(С)
f
(%)
Тe
(С)
Тes
(С)
Комфортность P
(гПа)
Po
(гПа)
Тmin
(С)
Tmax
(С)
R
(мм)
R24
(мм)
S
(см)
12 18.05 В 1 50 км 10/8 300 м
[Sc As trans]
+18.9 +2.2 33 +20 +21 1011.5 990.1
15 18.05 В 1 50 км в посл. час ливневой дождь 10/10 300 м
[Cb cap]
+15.2 +6.9 58 +16 +16 1011.1 989.6 +21.3 0.5
18 18.05 ЮВ 1 50 км в посл. час ливневой дождь 9/9 300 м
[Cb cap]
+10.4 +8.3 87 +10 +10 1010.9 989.0
21 18.05 ЮВ 2 50 км в посл. час ливневой дождь 9/9 600 м
[Cb cap]
+10.4 +9.3 93 +9 +9 1009.9 988.0
00 19.05 В 1 50 км в посл. час гроза {ливн. осадки} 10/10 600 м
[Cb cap]
+9.3 +8.7 96 +9 +9 1009.2 987.3
03 19.05 ЮВ 2 50 км {гроза, ливн. осадки} 8/6 300 м
[Cb cap Ac cast Ci fib]
+8.9 +8.1 95 +7 +8 1007.2 985.3 +8.4 10
06 19.05 ЮВ 2 50 км в посл. час гроза {ливн. осадки} 10/10 600 м
[Cb cap]
+12.4 +11.1 92 +11 +11 1005.6 984.0
09 19.05 ЮВ 2 50 км 10/10 600 м
[Cb cap]
+16.7 +11.8 73 +17 +17 1004.0 982.8
12 19.05 Ю 2 50 км 8/8 600 м
[Cu med, cong Ac cuf]
+22.8 +12.9 54 +26 +27 жарко 1000.7 979.9
15 19.05 ЮВ 1 50 км гроза без осадков 8/6 600 м
[Cb calv As op]
+18.4 +13.1 71 +20 +20 1001.6 980.5 +23.4 0.9
18 19.05 С 2 10 км слабый ливневой дождь {гроза} 10/10 600 м
[Cb calv]
+15.0 +13.7 92 +15 +15 1001.4 980.1
21 19.05 ЮЗ 4 10 км слабый ливневой дождь {гроза} 10/10 600 м
[Cb calv]
+13.7 +13.0 96 +12 +12 1001.3 979.9
00 20.05 СЗ 3 10 км слабая морось {гроза, ливн. осадки} 10/10 300 м
[St]
+11.3 +10.6 95 +9 +9 1002.2 980.5
03 20.05 СЗ 4 50 км слабый ливневой дождь {морось} 10/10 600 м
[Cb cap]
+9.0 +8.2 95 +6 +6 1004.3 982.4 +9.0 7
06 20.05 СЗ 5
{10}
50 км {ливн. осадки, морось} 10/10 300 м
[St]
+6.0 +4.9 93 +2 +2 1007.8 985.6 +5.9
09 20.05 СЗ 3
{11}
50 км 10/10 600 м
[Sc]
+6.3 +4.6 89 +3 +3 1010.5 988.3
12 20.05 СЗ 3
{10}
50 км {морось} 10/10 600 м
[Sc]
+5.6 +2.9 83 +2 +2 1013.5 991.1
15 20.05 С 3
{10}
50 км 10/10 300 м
[St]
+3.9 +1.7 86 0 0 1016.8 994.2 +9.0 1
18 20.05 СЗ 3 50 км {морось} 10/10 600 м
[Sc]
+2.6 +0.5 86 -2 -2 1019.6 996.8
21 20.05 З 1 50 км ясно -0.5 -1.3 94 -3 -3 1021.2 998.1
00 21.05 З 2 50 км 3/3 600 м
[Sc diur, vesp]
-1.9 -2.2 98 -6 -6 1022.7 999.5
03 21.05 З 2 50 км 6/0 2000 м
[As op Ci]
+3.6 +0.7 81 +1 +3 1024.2 1001.4 -2.1 0.0
06 21.05 З 2 50 км 9/0 2000 м
[Ac trans Cc]
+11.0 +1.5 52 +10 +17 1024.3 1002.1
09 21.05 Ю 2 50 км в посл. час ливневой дождь 10/8 600 м
[Cb cap Ac trans]
+12.6 +4.4 57 +12 +13 1024.9 1002.8
12 21.05 ЮЗ 5 50 км {ливн. осадки} 6/6 600 м
[Cb calv]
+16.6 +3.2 41 +16 +17 1023.2 1001.5
15 21.05 З 2 50 км 9/3 600 м
[Cb cap Ci ing]
+17.2 +2.7 38 +18 +18 1022.4 1000.7 +17.4 0.0
18 21.05 З 2 50 км 10/0 2000 м
[Ac As]
+12.0 +4.7 61 +11 +11 1023.2 1001.1
21 21.05 З 2 50 км 10/0 2000 м
[Ac As]
+11.7 +2.5 53 +11 +11 1022.9 1000.8
00 22.05 З 3 50 км 10/0 2000 м
[Ac und]
+11.2 +1.7 52 +10 +10 1022.4 1000.3
03 22.05 З 3 50 км 10/0 2000 м
[Ac und]
+14.8 +3.5 47 +14 +15 1021.4 999.5 +10.1
06 22.05 СЗ 4
{11}
50 км 8/0 2000 м
[Ac As]
+19.9 +5.3 38 +21 +24 комфорт 1021.5 1000.1
09 22.05 СЗ 5-10
{11}
50 км 8/3 600 м
[Cu hum Ac trans Cc]
+22.4 +5.3 33 +23 +26 комфорт 1022.8 1001.5
12 22.05 С 4
{11}
50 км 6/3 600 м
[Cu med, cong Ac trans]
+21.8 +4.7 33 +22 +25 комфорт 1023.6 1002.3
15 22.05 С 3
{10}
50 км 4/0 2000 м
[Ac trans]
+21.4 +4.3 33 +22 +23 комфорт 1023.9 1002.5 +23.1
18 22.05 СВ 1 50 км ясно +13.9 +1.0 41 +15 +15 1025.2 1003.2
21 22.05 ЮВ 1 50 км ясно +9.4 -1.5 46 +9 +9 1026.0 1003.6
00 23.05 Ю 1 50 км 3/0 2000 м
[Ac As]
+8.8 -2.0 47 +9 +9 1025.5 1003.1
03 23.05 Ю 2 50 км 4/0 2000 м
[Ac trans]
+14.7 -0.6 35 +15 +17 1022.6 1000.7 +8.4
06 23.05 ЮЗ 3 50 км 9/3 600 м
[Cb cap Ac trans Ci sp]
+21.4 +5.0 34 +22 +25 комфорт 1019.4 998.1
09 23.05 ЮЗ 2
{11}
50 км {ливн. осадки} 10/10 600 м
[Cb cap]
+17.9 +9.9 59 +18 +18 1019.0 997.5
12 23.05 ЮЗ 5
{11}
50 км {ливн. осадки} 6/6 600 м
[Cu hum]
+23.7 +5.6 31 +24 +25 комфорт 1014.9 993.9
15 23.05 ЮЗ 5
{11}
50 км 6/5 600 м
[Cu med, cong Ci fib]
+23.2 +6.3 34 +24 +24 комфорт 1012.1 991.1 +24.1 0.0
18 23.05 Ю 2
{11}
50 км {гроза} 8/8 600 м
[Cb cap]
+18.4 +9.2 55 +19 +19 1011.5 990.2
21 23.05 СЗ 3
{12}
10 км слабый ливневой дождь 9/9 600 м
[Cb cap]
+15.0 +10.2 73 +14 +14 1011.5 989.9
00 24.05 З 2 50 км {ливн. осадки} 6/6 600 м
[Sc]
+12.8 +10.2 84 +12 +12 1011.2 989.4
03 24.05 СЗ 3 50 км {ливн. осадки} 10/10 600 м
[Cb cap]
+12.2 +10.9 92 +11 +11 1012.7 990.9 +12.2 0.5
06 24.05 С 4
{11}
50 км {ливн. осадки} 10/10 600 м
[Cb cap]
+7.5 +4.6 82 +4 +4 1017.7 995.4 +7.1
09 24.05 СЗ 4
{11}
50 км 8/8 600 м
[Sc diur, vesp]
+9.1 +1.0 57 +7 +8 1019.5 997.2
12 24.05 С 4
{11}
50 км 8/8 600 м
[Sc diur, vesp]
+11.6 -1.3 41 +10 +11 1019.8 997.8
15 24.05 С 3 50 км 8/6 600 м
[Sc diur, vesp Ac trans]
+9.2 -1.9 46 +7 +8 1020.6 998.3 +12.2 0.0
18 24.05 СЗ 1 50 км 10/10 600 м
[Sc]
+6.2 -0.1 64 +5 +5 1021.0 998.5
21 24.05 З 1 50 км 10/10 600 м
[Sc]
+4.9 -0.6 68 +4 +4 1020.8 998.2
00 25.05 СЗ 2 50 км 10/3 600 м
[Sc As op]
+4.1 -0.3 73 +2 +2 1020.9 998.2
03 25.05 С 3 50 км 10/10 600 м
[Sc]
+4.4 -0.2 72 +1 +1 1020.8 998.2 +3.9
06 25.05 С 3 50 км в посл. час ливневой дождь 10/10 600 м
[Cb cap]
+6.7 -0.7 59 +4 +4 1021.0 998.6
09 25.05 СЗ 3
{10}
50 км слабый ливневой дождь {снег} 10/10 600 м
[Cb cap]
+4.3 +1.5 82 +1 +1 1022.4 999.8

 

Местоположение метеостанции Усть-Черная (Пермский край, Россия): широта 60.47 долгота 52.63 высота над уровнем моря 183 м.

В архиве по умолчанию представлена погода в Усть-Черной за последнюю неделю. Архивные данные за месяц целиком и за предыдущие месяцы, начиная с января 2011 года, Вы можете получить, выбрав интересующий диапазон дат из раскрывающегося списка и нажав кнопку "Ввод!".


*Определитесь, кто Вы:
робот инопланетянин человек

Внимание! Время в таблицах - всемирное. Для получения местного времени необходимо прибавить поправку, которая в Усть-Черной равна 5 ч.

Смотрите также архив погоды в соседних городах и на ближайших метеорологических станциях:

Погода в Койгородке (Коми, Россия) (91 км)
Погода в Гайнах (Пермский край, Россия) (97 км)
Погода в Кирсе (Кировская область, Россия) (126 км)
Погода в Кочево (Пермский край, Россия) (141 км)
Погода в Косе (Пермский край, Россия) (143 км)
Погода в Усть-Куломе (Коми, Россия) (146 км)
Погода в Пустоши (Коми, Россия) (147 км)
Погода в Нагорске (Кировская область, Россия) (163 км)
Погода в Объячеве (Коми, Россия) (164 км)
Погода в Сыктывкаре (Коми, Россия) (167 км)

Пояснения к столбцам:

Ветер - указаны скорость ветра в м/с - средняя за 10 мин, порывы в срок и между сроками (в фигурных скобках) и направление, откуда дует ветер: С - северный, СВ - северо-восточный, В - восточный, ЮВ - юго-восточный, Ю - южный, ЮЗ - юго-западный, З - западный, СЗ - северо-западный.
Видимость - горизонтальная дальность видимости в метрах или километрах. При видимости от 1 до 10 км при отсутствии осадков обычно наблюдается дымка, при ухудшении видимости до 1 км и менее - туман. В сухую погоду видимость может ухудшаться дымом, пылью или мглою.
Явления - указаны атмосферные явления, наблюдавшиеся в срок или в последний час перед сроком; фигурными скобками обозначены явления, наблюдавшиеся между сроками (за 1-3 часа до срока); квадратными скобками обозначены град или гололедные отложения с указанием их диаметра в мм.
Облачность - указаны через наклонную черту общая и нижняя облачность в баллах и высота нижней границы облаков в метрах; квадратными скобками обозначены формы облаков: Ci - перистые, Cs - перисто-слоистые, Cc - перисто-кучевые, Ac - высококучевые, As - высокослоистые, Sc - слоисто-кучевые, Ns - слоисто-дождевые, Cu - кучевые, Cb - кучево-дождевые. Подробнее классификацию облаков см. в Атласе облаков (PDF).
T - Температура воздуха - температура, измеренная на высоте 2 м над землей.
Td - Температура точки росы - температура, при понижении до которой содержащийся в воздухе водяной пар достигнет насыщения.
f - Относительная влажность воздуха - влажноcть воздуха, измеренная на высоте 2 м над землей.
Te - Эффективная температура - температура, которую ощущает одетый по сезону человек в тени. Характеристика душности погоды. При расчете учитывается влияние влажности воздуха и скорости ветра на теплоощущения человека.
Tes - Эффективная температура на солнце - температура, которую ощущает человек, с поправкой на солнечный нагрев. Характеристика знойности погоды. Зависит от высоты солнца над горизонтом, облачности и скорости ветра. Ночью, в пасмурную погоду, а также при ветре 12 м/с и более поправка равна нулю.
P - Атмосферное давление - приведенное к уровню моря атмосферное давление.
Po - Атмосферное давление - измеренное на уровне метеостанции атмосферное давление.
Tmin - Минимальная температура - минимум температуры воздуха на высоте 2 м над землей.
Tmax - Максимальная температура - максимум температуры воздуха на высоте 2 м над землей.
R - Количество осадков - Количество выпавших осадков за период времени, мм. При наведении курсора мыши на число - период времени, за который выпало указанное количество осадков.
R24 - Количество осадков - Количество выпавших осадков за 24 часа, мм.
S - Снежный покров - Высота снежного покрова, см. При наведении курсора мыши на число - состояние снежного покрова и степень покрытия местности в баллах.